AHY212 UBBB-URSS

Flight info

Callsign AHY212
Flight time N/A
Altitude 36000
Route EKRAM Y124 ABTEK N43 BUMAR B494 MKL B491 RESLO A944 GUBOR G487 BINOL BINOL1L
Aircraft A20N/M-SDE2E3FGHIJ1RWXYZ/LB1

Departure

Time 2025-09-09 11:30
Airport Heydar Aliyev International Airport (UBBB)

Arrival

Time N/A
Airport Sochi International Airport (URSS)
Time Latitude Longitude Altitude Speed Heading
2025-09-09 10:41 40.46553 50.05092 17 ft 0 kts 122°
2025-09-09 11:16 40.46556 50.05086 17 ft 2 kts 122°
2025-09-09 11:16 40.46572 50.05052 17 ft 2 kts 122°
2025-09-09 11:17 40.46587 50.05019 17 ft 2 kts 122°
2025-09-09 11:17 40.46595 50.05002 17 ft 2 kts 122°
2025-09-09 11:18 40.46607 50.04977 17 ft 1 kts 155°
2025-09-09 11:18 40.46619 50.04980 17 ft 1 kts 206°
2025-09-09 11:20 40.46614 50.04976 17 ft 3 kts 206°
2025-09-09 11:20 40.46516 50.04662 17 ft 24 kts 268°
2025-09-09 11:21 40.46504 50.04406 17 ft 31 kts 268°
2025-09-09 11:21 40.46334 50.04233 17 ft 22 kts 160°
2025-09-09 11:22 40.45972 50.04409 17 ft 28 kts 159°
2025-09-09 11:22 40.45659 50.04430 17 ft 18 kts 252°
2025-09-09 11:22 40.45619 50.04239 17 ft 25 kts 263°
2025-09-09 11:23 40.45818 50.04046 17 ft 0 kts 347°
2025-09-09 11:28 40.45832 50.04042 17 ft 16 kts 347°
2025-09-09 11:29 40.46191 50.03933 17 ft 88 kts 347°
2025-09-09 11:29 40.47817 50.03428 387 ft 168 kts 349°
2025-09-09 11:30 40.49801 50.02862 1155 ft 178 kts 351°
2025-09-09 11:30 40.52409 50.02103 2104 ft 213 kts 348°
2025-09-09 11:31 40.55329 50.01441 3064 ft 223 kts 359°
2025-09-09 11:31 40.58449 50.01398 4054 ft 234 kts 359°
2025-09-09 11:32 40.63771 50.01350 5768 ft 266 kts 358°
2025-09-09 11:32 40.67509 50.01338 6872 ft 273 kts 358°
2025-09-09 11:33 40.69420 50.01333 7427 ft 276 kts 357°
2025-09-09 11:33 40.73215 50.01323 8618 ft 285 kts 357°
2025-09-09 11:34 40.77230 50.01313 9874 ft 295 kts 356°
2025-09-09 11:34 40.81235 50.01302 11084 ft 305 kts 357°
2025-09-09 11:35 40.85540 50.01292 12340 ft 316 kts 357°
2025-09-09 11:35 40.89934 50.01284 13588 ft 320 kts 356°
2025-09-09 11:36 40.96529 50.01269 15469 ft 329 kts 356°
2025-09-09 11:36 40.98807 50.01263 16117 ft 333 kts 356°
2025-09-09 11:37 41.03495 50.01252 17407 ft 344 kts 356°
2025-09-09 11:37 41.08353 50.01240 18525 ft 358 kts 356°
2025-09-09 11:38 41.13183 50.00902 19600 ft 364 kts 340°
2025-09-09 11:38 41.17083 49.97778 20688 ft 360 kts 317°
2025-09-09 11:39 41.20996 49.93823 21632 ft 373 kts 317°
2025-09-09 11:39 41.23077 49.91663 22123 ft 380 kts 317°
2025-09-09 11:40 41.31222 49.83166 23999 ft 399 kts 316°
2025-09-09 11:40 41.33440 49.80848 24471 ft 404 kts 316°
2025-09-09 11:41 41.37744 49.76343 25326 ft 413 kts 316°
2025-09-09 11:43 41.56294 49.56842 28853 ft 432 kts 315°
2025-09-09 11:45 41.74864 49.37184 32150 ft 428 kts 315°
2025-09-09 11:47 41.90062 49.14774 35248 ft 393 kts 302°
2025-09-09 11:49 42.02575 48.92641 35961 ft 411 kts 303°
2025-09-09 11:51 42.17120 48.69232 35967 ft 409 kts 304°
2025-09-09 11:53 42.31632 48.45470 35969 ft 409 kts 304°
2025-09-09 11:55 42.43780 48.19923 35962 ft 404 kts 295°
2025-09-09 11:57 42.54670 47.93501 35272 ft 405 kts 295°
2025-09-09 11:59 42.65628 47.66695 34356 ft 406 kts 294°
2025-09-09 12:01 42.68190 47.60282 34137 ft 405 kts 290°
2025-09-09 12:02 42.57761 47.50706 31428 ft 436 kts 139°
2025-09-09 12:05 42.62769 47.82367 27557 ft 420 kts 37°
2025-09-09 12:07 42.76963 48.05646 23961 ft 383 kts 15°
2025-09-09 12:07 42.79426 48.06177 23570 ft 367 kts 349°
2025-09-09 12:08 42.85178 47.97353 21933 ft 328 kts 288°
2025-09-09 12:08 42.86896 47.91600 20982 ft 325 kts 289°
2025-09-09 12:09 42.87976 47.88913 20516 ft 329 kts 302°
2025-09-09 12:09 42.91193 47.84656 19539 ft 331 kts 315°
2025-09-09 12:10 42.94740 47.80701 18494 ft 327 kts 317°
2025-09-09 12:10 42.98195 47.76976 17457 ft 316 kts 317°
2025-09-09 12:11 43.01498 47.73430 16421 ft 301 kts 318°
2025-09-09 12:11 43.03125 47.71685 15883 ft 291 kts 318°
2025-09-09 12:12 43.07672 47.66794 13846 ft 285 kts 319°
2025-09-09 12:12 43.10665 47.63573 12448 ft 283 kts 320°
2025-09-09 12:13 43.13678 47.60328 11025 ft 280 kts 321°
2025-09-09 12:13 43.16719 47.57048 9575 ft 278 kts 320°
2025-09-09 12:14 43.19723 47.53804 8132 ft 276 kts 320°
2025-09-09 12:14 43.21228 47.52177 7405 ft 275 kts 320°
2025-09-09 12:14 43.23014 47.48175 6098 ft 263 kts 266°
2025-09-09 12:15 43.21135 47.44685 5115 ft 236 kts 191°
2025-09-09 12:16 43.16720 47.46241 3981 ft 207 kts 173°
2025-09-09 12:16 43.14138 47.46586 3974 ft 170 kts 173°
2025-09-09 12:17 43.11914 47.46827 3995 ft 159 kts 174°
2025-09-09 12:17 43.09690 47.47028 3994 ft 159 kts 175°
2025-09-09 12:18 43.07493 47.47207 3993 ft 159 kts 175°
2025-09-09 12:18 43.06391 47.47293 3993 ft 159 kts 175°
2025-09-09 12:19 43.03224 47.47535 3800 ft 162 kts 174°
2025-09-09 12:19 43.02168 47.47910 3572 ft 157 kts 151°
2025-09-09 12:20 42.99517 47.50093 2933 ft 154 kts 148°
2025-09-09 12:20 42.97890 47.51449 2653 ft 137 kts 148°
2025-09-09 12:21 42.95535 47.53439 2422 ft 133 kts 147°
2025-09-09 12:21 42.94750 47.54105 2372 ft 133 kts 147°
2025-09-09 12:21 42.93963 47.54774 2321 ft 132 kts 147°
2025-09-09 12:22 42.92407 47.56100 2221 ft 132 kts 147°
2025-09-09 12:22 42.90841 47.57435 2047 ft 131 kts 147°
2025-09-09 12:23 42.89295 47.58754 1833 ft 132 kts 146°
2025-09-09 12:24 42.87131 47.60584 1268 ft 130 kts 146°
2025-09-09 12:24 42.85591 47.61871 857 ft 130 kts 146°
2025-09-09 12:25 42.84073 47.63160 492 ft 131 kts 143°
2025-09-09 12:25 42.82558 47.64480 61 ft 129 kts 146°
2025-09-09 12:25 42.81834 47.65116 20 ft 98 kts 145°
2025-09-09 12:26 42.81584 47.65325 20 ft 1 kts
2025-09-09 12:27 42.81704 47.65438 20 ft 16 kts 58°
2025-09-09 12:27 42.81870 47.65618 20 ft 9 kts 320°
2025-09-09 12:28 42.81975 47.65515 20 ft 13 kts 332°
2025-09-09 12:28 42.82043 47.65503 20 ft 8 kts 150°
2025-09-09 12:29 42.82030 47.65514 20 ft 0 kts 149°